WetterOnline ( https://www.wetteronline.de )

Wetter aktuell Rauenberg

Aktuelles Wetter: Mühlacker (245m)

6-stündlich | Neueste Meldungen
Ortszeit Temperatur Wetter
So, 19.09. 20:00 13.9° C wolkenlos
So, 19.09. 14:00 19.0° C wolkenlos
So, 19.09. 8:00 7.1° C wolkig
So, 19.09. 2:00 8.9° C leicht bewölkt
Sa, 18.09. 20:00 14.6° C wolkenlos
Sa, 18.09. 14:00 21.5° C fast wolkenlos
Sa, 18.09. 8:00 7.3° C bedeckt
Sa, 18.09. 2:00 8.8° C wolkig
Ortszeit Temperatur Wetter
Mo, 20.09. 1:00 13.4° C bedeckt
Mo, 20.09. 0:50 13.4° C bedeckt
Mo, 20.09. 0:40 13.4° C bedeckt
Mo, 20.09. 0:30 13.5° C bewölkt
Mo, 20.09. 0:20 13.5° C bewölkt
Mo, 20.09. 0:10 13.1° C bewölkt
Mo, 20.09. 0:00 12.9° C bewölkt
So, 19.09. 23:30 13.3° C bedeckt
So, 19.09. 23:00 13.0° C bedeckt
So, 19.09. 22:30 13.2° C bewölkt
So, 19.09. 22:00 13.7° C bedeckt
Ortszeit Relative Feuchte Sichtweite
So, 19.09. 20:00 84% 60 km
So, 19.09. 14:00 63% 60 km
So, 19.09. 8:00 99% 12 km
So, 19.09. 2:00 99% 9 km
Sa, 18.09. 20:00 87% 29 km
Sa, 18.09. 14:00 49% >70 km
Sa, 18.09. 8:00 100% 1.0 km
Sa, 18.09. 2:00 98% 12 km
Ortszeit Relative Feuchte Sichtweite
Mo, 20.09. 1:00 83% 50 km
Mo, 20.09. 0:50 83% -
Mo, 20.09. 0:40 84% -
Mo, 20.09. 0:30 83% 50 km
Mo, 20.09. 0:20 83% -
Mo, 20.09. 0:10 89% -
Mo, 20.09. 0:00 92% 40 km
So, 19.09. 23:30 89% 45 km
So, 19.09. 23:00 91% 50 km
So, 19.09. 22:30 90% 60 km
So, 19.09. 22:00 89% 45 km
Ortszeit Niederschlagsmenge Niederschlagsart
So, 19.09. 20:00 0.0 l/m2 in 12 Std. -
So, 19.09. 14:00 0.0 l/m2 in 6 Std. -
So, 19.09. 8:00 0.0 l/m2 in 12 Std. -
So, 19.09. 2:00 0.0 l/m2 in 6 Std. -
Sa, 18.09. 20:00 0.0 l/m2 in 12 Std. -
Sa, 18.09. 14:00 0.0 l/m2 in 6 Std. -
Sa, 18.09. 8:00 0.0 l/m2 in 12 Std. -
Sa, 18.09. 2:00 0.0 l/m2 in 6 Std. -
Ortszeit Niederschlagsmenge Niederschlagsart
Mo, 20.09. 1:00 0.0 l/m2 in 1 Std. -
Mo, 20.09. 0:50 keine Meldung -
Mo, 20.09. 0:40 keine Meldung -
Mo, 20.09. 0:30 0.0 l/m2 in 1 Std. -
Mo, 20.09. 0:20 keine Meldung -
Mo, 20.09. 0:10 keine Meldung -
Mo, 20.09. 0:00 0.0 l/m2 in 1 Std. -
So, 19.09. 23:30 0.0 l/m2 in 1 Std. -
So, 19.09. 23:00 0.0 l/m2 in 1 Std. -
So, 19.09. 22:30 0.0 l/m2 in 1 Std. -
So, 19.09. 22:00 0.0 l/m2 in 1 Std. -
Ortszeit Stärke Spitze Richtung
km/h Bft. km/h Grad Sektor
So, 19.09. 20:00 7 2 25 10° N
So, 19.09. 14:00 9 2 20 70° O
So, 19.09. 8:00 4 1 4 50° NO
So, 19.09. 2:00 0 0 4 - -
Sa, 18.09. 20:00 2 1 19 20° N
Sa, 18.09. 14:00 9 2 22 100° O
Sa, 18.09. 8:00 0 0 4 - -
Sa, 18.09. 2:00 0 0 7 - -
Ortszeit Stärke Spitze Richtung
km/h Bft. km/h Grad Sektor
Mo, 20.09. 1:00 6 1 11 340° N
Mo, 20.09. 0:50 6 1 - 340° N
Mo, 20.09. 0:40 7 2 - 340° N
Mo, 20.09. 0:30 7 2 11 350° N
Mo, 20.09. 0:20 7 2 - 350° N
Mo, 20.09. 0:10 7 2 - 20° N
Mo, 20.09. 0:00 0 0 7 - -
So, 19.09. 23:30 4 1 7 300° NW
So, 19.09. 23:00 4 1 7 230° SW
So, 19.09. 22:30 4 1 7 30° NO
So, 19.09. 22:00 2 1 7 90° O
Ortszeit Untergrenze Bedeckung Gattung
total tief tief mittel hoch
So, 19.09. 20:00 - 0/8 0/8 - - -
So, 19.09. 14:00 - 0/8 0/8 - - -
So, 19.09. 8:00 10500 m 7/8 0/8 - - -
So, 19.09. 2:00 10500 m 5/8 0/8 - - -
Sa, 18.09. 20:00 - 0/8 0/8 - - -
Sa, 18.09. 14:00 10500 m 1/8 0/8 - - -
Sa, 18.09. 8:00 <30 m 8/8 0/8 - - -
Sa, 18.09. 2:00 8400 m 7/8 0/8 - - -
Ortszeit Bedeckungsgrad in Achtel und Wolkenuntergrenze
Mo, 20.09. 1:00 8(1350m)
Mo, 20.09. 0:50 8(1350m)
Mo, 20.09. 0:40 8(1350m)
Mo, 20.09. 0:30 2(990m) 7(1320m)
Mo, 20.09. 0:20 2(990m) 7(1320m)
Mo, 20.09. 0:10 4(990m) 7(1290m)
Mo, 20.09. 0:00 6(1020m) 7(1290m)
So, 19.09. 23:30 8(1200m)
So, 19.09. 23:00 8(1230m)
So, 19.09. 22:30 2(1080m) 7(1320m)
So, 19.09. 22:00 5(1110m) 8(1440m)
Ortszeit Luftdruck NN (hPa) Tendenz (hPa in 3 Std.)
So, 19.09. 20:00 1015 + 1,0
So, 19.09. 14:00 1013 - 0,8
So, 19.09. 8:00 1015 + 0,4
So, 19.09. 2:00 1016 - 0,3
Sa, 18.09. 20:00 1015 - 0,4
Sa, 18.09. 14:00 1016 - 0,7
Sa, 18.09. 8:00 1018 + 0,5
Sa, 18.09. 2:00 1017 + 0,2
Ortszeit Luftdruck NN (hPa) Tendenz (hPa in 3 Std.)
Mo, 20.09. 1:00 1017 + 0,7
Mo, 20.09. 0:50 1017 keine Meldung
Mo, 20.09. 0:40 1017 keine Meldung
Mo, 20.09. 0:30 1017 + 0,9
Mo, 20.09. 0:20 1017 keine Meldung
Mo, 20.09. 0:10 1017 keine Meldung
Mo, 20.09. 0:00 1017 + 1,2
So, 19.09. 23:30 1017 + 1,4
So, 19.09. 23:00 1017 + 1,5
So, 19.09. 22:30 1016 + 1,6
So, 19.09. 22:00 1016 + 2,0
Ortszeit Schneehöhe (cm)
So, 19.09. 20:00 -
So, 19.09. 14:00 -
So, 19.09. 8:00 -
So, 19.09. 2:00 -
Sa, 18.09. 20:00 -
Sa, 18.09. 14:00 -
Sa, 18.09. 8:00 -
Sa, 18.09. 2:00 -
Ortszeit Schneehöhe (cm)
Mo, 20.09. 1:00 -
Mo, 20.09. 0:50 -
Mo, 20.09. 0:40 -
Mo, 20.09. 0:30 -
Mo, 20.09. 0:20 -
Mo, 20.09. 0:10 -
Mo, 20.09. 0:00 -
So, 19.09. 23:30 -
So, 19.09. 23:00 -
So, 19.09. 22:30 -
So, 19.09. 22:00 -
Link zu dieser Seite / Seite empfehlen

Das Wetter in ...